History for FMMI

Antananarivo, KM

Daily Weekly Monthly
Daily Summary for Thursday, March 21, 2019
  Actual: Average: Record:
Temperature
Mean Temperature: 73 °F / 23 °C - :  
Max Temperature: 82 °F / 28 °C 78 °F / 25 °C 84 °F / 28 °C (1997)
Min Temperature: 64 °F / 18 °C 60 °F / 15 °C 46 °F / 7 °C (2005)
Cooling Degree Days 8    
Growing Degree Days 23 (Base 50)    
Moisture
Dew Point 64 °F / 18 °C    
Average Humidity 80    
Maximum Humidity 100    
Minimum Humidity 47    
Precipitation
Precipitation 0.51 in / 13.0 cm 0.14 in / 3.5 cm - ()
Sea Level Pressure
Sea Level Pressure 30.07 in / 1018.26 hPa   
Wind
Wind Speed 5 mph / 9 km/h ()  
Max Wind Speed 16 mph / 26 km/h   
Max Gust Speed -   
Visibility 6.1 miles / 9.9 kilometers   
Events Rain , Thunderstorm   
Averages and records for this station are not official NWS values.
Key: T is trace of precipitation, MM is missing value
Source: Averaged Metar Reports
Seasonal Weather Averages

Graphs

Observations

History Graphs Observations

Obs Go Here...

Features

Weather Apps

WunderRadio

Weather Underground Apps
Check out our wide variety of mobile and setup applications.

Weather Underground Applications

Top of Page

© Copyright 2019
The Weather Company, LLC
Time(EAT)TemperatureDew PointHumidity Sea Level Pressure Visibility Wind DirectionWind SpeedGust SpeedPrecipitationEvents Conditions
12:00 AM 70 °F / 21 °C 67 °F / 20 °C 88%  in /  hPa 12 miles / 20 kilometers ESE 4.6 mph / 7.4 km/h - - Thunderstorm Light Thunderstorm
12:00 AM 69.8 °F / 21.0 °C 64.4 °F / 18.0 °C 83% 30.06 in / 1018 hPa 6.2 miles / 10.0 kilometers ESE 11.5 mph / 18.5 km/h - N/A Thunderstorm Mostly Cloudy
1:00 AM 68.0 °F / 20.0 °C 62.6 °F / 17.0 °C 83% 30.06 in / 1018 hPa 6.2 miles / 10.0 kilometers East 11.5 mph / 18.5 km/h - N/A   Mostly Cloudy
1:30 AM 66.2 °F / 19.0 °C 62.6 °F / 17.0 °C 88% 30.06 in / 1018 hPa 6.2 miles / 10.0 kilometers East 10.4 mph / 16.7 km/h - N/A   Mostly Cloudy
2:00 AM 68.0 °F / 20.0 °C 62.6 °F / 17.0 °C 83% 30.06 in / 1018 hPa 6.2 miles / 10.0 kilometers East 5.8 mph / 9.3 km/h - N/A   Mostly Cloudy
3:00 AM 67 °F / 20 °C 64 °F / 18 °C 86%  in /  hPa 19 miles / 30 kilometers Calm Calm - -   Partly Cloudy
3:00 AM 66.2 °F / 19.0 °C 62.6 °F / 17.0 °C 88% 30.04 in / 1017 hPa 6.2 miles / 10.0 kilometers East 4.6 mph / 7.4 km/h - N/A   Mostly Cloudy
4:00 AM 66.2 °F / 19.0 °C 62.6 °F / 17.0 °C 88% 30.06 in / 1018 hPa 6.2 miles / 10.0 kilometers SE 4.6 mph / 7.4 km/h - N/A   Mostly Cloudy
5:00 AM 66.2 °F / 19.0 °C 62.6 °F / 17.0 °C 88% 30.06 in / 1018 hPa 6.2 miles / 10.0 kilometers ENE 3.5 mph / 5.6 km/h - N/A   Mostly Cloudy
6:00 AM 66 °F / 19 °C 64 °F / 18 °C 89%  in /  hPa 22 miles / 35 kilometers Calm Calm - -   Mostly Cloudy
6:00 AM 66.2 °F / 19.0 °C 62.6 °F / 17.0 °C 88% 30.06 in / 1018 hPa 6.2 miles / 10.0 kilometers SE 4.6 mph / 7.4 km/h - N/A   Mostly Cloudy
6:30 AM 66.2 °F / 19.0 °C 62.6 °F / 17.0 °C 88% 30.06 in / 1018 hPa 6.2 miles / 10.0 kilometers SSE 4.6 mph / 7.4 km/h - N/A   Scattered Clouds
7:00 AM 68.0 °F / 20.0 °C 62.6 °F / 17.0 °C 83% 30.06 in / 1018 hPa 6.2 miles / 10.0 kilometers SSE 5.8 mph / 9.3 km/h - N/A   Scattered Clouds
7:30 AM 69.8 °F / 21.0 °C 62.6 °F / 17.0 °C 78% 30.09 in / 1019 hPa 6.2 miles / 10.0 kilometers ESE 5.8 mph / 9.3 km/h - N/A   Scattered Clouds
8:00 AM 69.8 °F / 21.0 °C 62.6 °F / 17.0 °C 78% 30.09 in / 1019 hPa 6.2 miles / 10.0 kilometers SE 4.6 mph / 7.4 km/h - N/A   Scattered Clouds
8:30 AM 71.6 °F / 22.0 °C 62.6 °F / 17.0 °C 73% 30.09 in / 1019 hPa 6.2 miles / 10.0 kilometers East 4.6 mph / 7.4 km/h - N/A   Partly Cloudy
9:00 AM 72 °F / 22 °C 65 °F / 18 °C 72%  in /  hPa 22 miles / 35 kilometers Calm Calm - -   Partly Cloudy
9:00 AM 71.6 °F / 22.0 °C 62.6 °F / 17.0 °C 73% 30.09 in / 1019 hPa 6.2 miles / 10.0 kilometers ENE 5.8 mph / 9.3 km/h - N/A   Partly Cloudy
10:00 AM 77.0 °F / 25.0 °C 62.6 °F / 17.0 °C 61% 30.09 in / 1019 hPa 6.2 miles / 10.0 kilometers NE 6.9 mph / 11.1 km/h - N/A   Partly Cloudy
11:00 AM 78.8 °F / 26.0 °C 64.4 °F / 18.0 °C 61% 30.09 in / 1019 hPa 6.2 miles / 10.0 kilometers ENE 6.9 mph / 11.1 km/h - N/A   Scattered Clouds
11:30 AM 80.6 °F / 27.0 °C 62.6 °F / 17.0 °C 54% 30.09 in / 1019 hPa 6.2 miles / 10.0 kilometers East 6.9 mph / 11.1 km/h - N/A   Scattered Clouds
12:00 PM 80 °F / 26 °C 63 °F / 17 °C 47%  in /  hPa 25 miles / 40 kilometers ENE 2.3 mph / 3.7 km/h - -   Mostly Cloudy
12:00 PM 78.8 °F / 26.0 °C 62.6 °F / 17.0 °C 57% 30.06 in / 1018 hPa 6.2 miles / 10.0 kilometers ENE 4.6 mph / 7.4 km/h - N/A   Mostly Cloudy
1:00 PM 82.4 °F / 28.0 °C 66.2 °F / 19.0 °C 58% 30.04 in / 1017 hPa 6.2 miles / 10.0 kilometers Variable 3.5 mph / 5.6 km/h - N/A   Mostly Cloudy
1:30 PM 82.4 °F / 28.0 °C 62.6 °F / 17.0 °C 51% 30.04 in / 1017 hPa 6.2 miles / 10.0 kilometers Variable 3.5 mph / 5.6 km/h - N/A   Mostly Cloudy
2:00 PM 80.6 °F / 27.0 °C 64.4 °F / 18.0 °C 58% 30.04 in / 1017 hPa 6.2 miles / 10.0 kilometers ENE 5.8 mph / 9.3 km/h - N/A   Mostly Cloudy
3:00 PM 76 °F / 24 °C 67 °F / 20 °C 67%  in /  hPa 6 miles / 10 kilometers SE 4.6 mph / 7.4 km/h - -   Scattered Clouds
3:00 PM 75.2 °F / 24.0 °C 66.2 °F / 19.0 °C 73% 30.01 in / 1016 hPa 6.2 miles / 10.0 kilometers Variable 2.3 mph / 3.7 km/h - N/A Rain Light Rain
3:40 PM 71.6 °F / 22.0 °C 66.2 °F / 19.0 °C 83% 30.01 in / 1016 hPa 6.2 miles / 10.0 kilometers ESE 10.4 mph / 16.7 km/h - N/A Rain , Thunderstorm Light Thunderstorms and Rain
4:00 PM 73.4 °F / 23.0 °C 66.2 °F / 19.0 °C 78% 30.01 in / 1016 hPa 6.2 miles / 10.0 kilometers ENE 11.5 mph / 18.5 km/h - N/A Thunderstorm Thunderstorm
4:54 PM 73.4 °F / 23.0 °C 66.2 °F / 19.0 °C 78% 30.01 in / 1016 hPa 6.2 miles / 10.0 kilometers ENE 3.5 mph / 5.6 km/h - N/A   Scattered Clouds
5:00 PM 73.4 °F / 23.0 °C 66.2 °F / 19.0 °C 78% 30.01 in / 1016 hPa 6.2 miles / 10.0 kilometers ENE 3.5 mph / 5.6 km/h - N/A   Scattered Clouds
5:09 PM 73.4 °F / 23.0 °C 66.2 °F / 19.0 °C 78% 30.01 in / 1016 hPa 6.2 miles / 10.0 kilometers NE 5.8 mph / 9.3 km/h - N/A Thunderstorm Thunderstorm
6:00 PM 73 °F / 23 °C 69 °F / 20 °C 82%  in /  hPa 12 miles / 20 kilometers ENE 2.3 mph / 3.7 km/h - - Thunderstorm Thunderstorm
6:00 PM 71.6 °F / 22.0 °C 62.6 °F / 17.0 °C 73% 30.04 in / 1017 hPa 6.2 miles / 10.0 kilometers NNE 6.9 mph / 11.1 km/h - N/A Thunderstorm Thunderstorm
7:00 PM 69.8 °F / 21.0 °C 64.4 °F / 18.0 °C 83% 30.06 in / 1018 hPa 6.2 miles / 10.0 kilometers NNE 8.1 mph / 13.0 km/h - N/A Rain , Thunderstorm Light Thunderstorms and Rain
7:30 PM 68.0 °F / 20.0 °C 64.4 °F / 18.0 °C 88% 30.06 in / 1018 hPa 3.7 miles / 6.0 kilometers North 4.6 mph / 7.4 km/h - N/A Rain , Thunderstorm Light Thunderstorms and Rain
8:30 PM 66.2 °F / 19.0 °C 64.4 °F / 18.0 °C 94% 30.12 in / 1020 hPa 3.1 miles / 5.0 kilometers South 15.0 mph / 24.1 km/h - N/A Rain , Thunderstorm Thunderstorms and Rain
8:46 PM 64.4 °F / 18.0 °C 62.6 °F / 17.0 °C 94% 30.12 in / 1020 hPa 4.3 miles / 7.0 kilometers South 16.1 mph / 25.9 km/h - N/A Rain , Thunderstorm Light Thunderstorms and Rain
9:00 PM 64 °F / 18 °C 63 °F / 17 °C 96%  in /  hPa 2 miles / 4.0 kilometers SSW 6.9 mph / 11.1 km/h - - Rain , Thunderstorm Thunderstorms and Rain
9:00 PM 64.4 °F / 18.0 °C 62.6 °F / 17.0 °C 94% 30.12 in / 1020 hPa 4.3 miles / 7.0 kilometers South 12.7 mph / 20.4 km/h - N/A Rain , Thunderstorm Light Thunderstorms and Rain
9:30 PM 64.4 °F / 18.0 °C 62.6 °F / 17.0 °C 94% 30.12 in / 1020 hPa 4.3 miles / 7.0 kilometers SSW 8.1 mph / 13.0 km/h - N/A Rain , Thunderstorm Light Thunderstorms and Rain
9:38 PM 64.4 °F / 18.0 °C 62.6 °F / 17.0 °C 94% 30.15 in / 1021 hPa 2.2 miles / 3.5 kilometers Variable 2.3 mph / 3.7 km/h - N/A Rain , Thunderstorm Thunderstorms and Rain
10:00 PM 64.4 °F / 18.0 °C 62.6 °F / 17.0 °C 94% 30.15 in / 1021 hPa 1.9 miles / 3.0 kilometers WSW 4.6 mph / 7.4 km/h - N/A Rain , Thunderstorm Thunderstorms and Rain
11:00 PM 64.4 °F / 18.0 °C 62.6 °F / 17.0 °C 94% 30.12 in / 1020 hPa 3.7 miles / 6.0 kilometers Variable 1.2 mph / 1.9 km/h - N/A Rain , Thunderstorm Light Thunderstorms and Rain
11:30 PM 64.4 °F / 18.0 °C 64.4 °F / 18.0 °C 100% 30.12 in / 1020 hPa 4.3 miles / 7.0 kilometers SSE 4.6 mph / 7.4 km/h - N/A Rain , Thunderstorm Light Thunderstorms and Rain
11:52 PM 64.4 °F / 18.0 °C 64.4 °F / 18.0 °C 100% 30.12 in / 1020 hPa 6.2 miles / 10.0 kilometers ESE 4.6 mph / 7.4 km/h - N/A Rain Light Rain